Regional Weather Roundup
Issued by NWS

Home | Current Version | Previous Version | Text Only | Print | Product List | Glossary Off
Versions: 1 2 3 4 5 6 7 8 9 10 11 12 13 14 15 16 17 18 19 20 21 22 23 24 25 26 27 28 29 30 31 32 33 34 35 36 37 38 39 40 41 42 43 44 45 46 47 48 49 50

000
ASUS43 KOAX 290402
RWRNE

WEATHER ROUNDUP FOR NEBRASKA
NATIONAL WEATHER SERVICE OMAHA NE
1100 PM CDT TUE JUL 28 2015

NOTES: SATELLITE DATA IS BEING USED TO AUGMENT CLOUD COVER ABOVE
       12000 FEET.
       "FAIR" INDICATES FEW OR NO CLOUDS BELOW 12,000 FEET WITH NO
       SIGNIFICANT WEATHER AND/OR OBSTRUCTIONS TO VISIBILITY.

  * THESE STATIONS DO NOT REPORT WEATHER SUCH AS RAIN...SNOW OR FOG.

NEZ001>004-019>022-054>056-290500-
NEBRASKA PANHANDLE

CITY           SKY/WX    TMP DP  RH WIND       PRES   REMARKS
SCOTTSBLUFF    PTCLDY    62  44  51 NE9       30.20R
ALLIANCE       CLEAR     57  43  59 CALM      30.20R
CHADRON        CLEAR     57  41  55 CALM      30.18R
KIMBALL        PTCLDY    59  40  48 CALM      30.23R
SIDNEY         CLEAR     62  38  40 E6        30.21R
$$

NEZ057>060-069>072-079>082-290500-
SOUTHWEST NEBRASKA

CITY           SKY/WX    TMP DP  RH WIND       PRES   REMARKS
NORTH PLATTE   CLEAR     61  52  72 W3        30.13R
IMPERIAL       CLEAR     65  48  54 NE5       30.15R
MCCOOK         CLEAR     66  52  60 N8        30.10R
$$

NEZ005>010-023>029-035>040-094-290500-
NORTH CENTRAL NEBRASKA

CITY           SKY/WX    TMP DP  RH WIND       PRES   REMARKS
VALENTINE      CLEAR     66  46  48 N6        30.13R
AINSWORTH      CLEAR     68  47  46 NW6       30.12R
BROKEN BOW     CLEAR     61  51  70 N5        30.10R
O`NEILL        CLEAR     64  60  87 NW3       30.08R
ORD            CLEAR     62  57  83 CALM      30.07R
$$

NEZ041-046>049-061>064-073>077-083>087-290500-
SOUTH CENTRAL NEBRASKA

CITY           SKY/WX    TMP DP  RH WIND       PRES   REMARKS
GRAND ISLAND   CLEAR     64  58  80 N6        30.06R
AURORA         CLEAR     64  62  93 N7        30.05R
HASTINGS       CLEAR     67  59  75 N7        30.05R
KEARNEY *      CLEAR     68  55  64 N5        30.07R
$$

NEZ011>018-030>034-042>045-290500-
NORTHEAST NEBRASKA

CITY           SKY/WX    TMP DP  RH WIND       PRES   REMARKS
NORFOLK        CLEAR     61  58  90 CALM      30.05R
BLAIR          MOCLDY    72  62  70 N10       30.01R
COLUMBUS *     CLEAR     61  54  77 CALM      30.05R
FREMONT        CLEAR     69  63  80 N3        30.02R
TEKAMAH        PTCLDY    70  66  87 N8        30.01R
$$

NEZ050>053-065>068-078-088>093-290500-
SOUTHEAST NEBRASKA

CITY           SKY/WX    TMP DP  RH WIND       PRES   REMARKS
LINCOLN        MOCLDY    71  63  75 N5        30.02R
OMAHA EPPLEY   CLOUDY    75  64  68 N8        30.00R
FALLS CITY     CLOUDY    75  71  87 N17G26    29.93R
NEBRASKA CITY  CLOUDY    72  70  92 NE10      29.99R
$$

NEZ044-045-051>053-067-290500-
OMAHA AREA

CITY           SKY/WX    TMP DP  RH WIND       PRES   REMARKS
OMAHA EPPLEY   CLOUDY    75  64  68 N8        30.00R
BLAIR          MOCLDY    72  62  70 N10       30.01R
FREMONT        CLEAR     69  63  80 N3        30.02R
OFFUTT AFB     CLOUDY    76  63  62 NE5       30.00R
WAHOO          FAIR      69  64  86 N6        30.01R
$$



USA.gov is the U.S. government's official web portal to all federal, state and local government web resources and services.